TimeEST,TemperatureF,Dew PointF,Humidity,Sea Level PressureIn,VisibilityMPH,Wind Direction,Wind SpeedMPH,Gust SpeedMPH,PrecipitationIn,Events,Conditions,WindDirDegrees,DateUTC
12:56 AM,28.0,14.0,56,29.98,10.0,NNW,8.1,-,N/A,,Clear,330,2013-01-02 05:56:00
1:56 AM,27.0,14.0,58,30.00,10.0,NW,5.8,-,N/A,,Clear,320,2013-01-02 06:56:00
2:56 AM,27.0,12.0,53,30.00,10.0,NW,5.8,-,N/A,,Clear,320,2013-01-02 07:56:00
3:56 AM,26.1,12.0,55,30.00,10.0,NNW,4.6,-,N/A,,Clear,340,2013-01-02 08:56:00
4:56 AM,25.0,10.0,53,30.02,10.0,NNW,10.4,-,N/A,,Clear,340,2013-01-02 09:56:00
5:56 AM,24.1,10.0,55,30.01,10.0,NNW,8.1,-,N/A,,Clear,330,2013-01-02 10:56:00
6:56 AM,23.0,10.9,60,30.02,10.0,NNW,4.6,-,N/A,,Clear,330,2013-01-02 11:56:00
7:56 AM,23.0,12.0,63,30.02,10.0,WNW,3.5,-,N/A,,Clear,290,2013-01-02 12:56:00
8:56 AM,25.0,12.0,58,30.05,10.0,NW,9.2,-,N/A,,Clear,310,2013-01-02 13:56:00
9:56 AM,28.0,10.9,49,30.07,10.0,WNW,10.4,16.1,N/A,,Clear,290,2013-01-02 14:56:00
10:56 AM,28.9,10.9,47,30.06,10.0,WNW,16.1,-,N/A,,Clear,300,2013-01-02 15:56:00
11:56 AM,30.0,10.9,45,30.02,10.0,WNW,15.0,23.0,N/A,,Clear,290,2013-01-02 16:56:00
12:56 PM,30.0,12.0,47,30.00,10.0,West,12.7,-,N/A,,Clear,280,2013-01-02 17:56:00
1:56 PM,30.9,14.0,50,30.01,10.0,WNW,13.8,-,N/A,,Clear,290,2013-01-02 18:56:00
2:56 PM,32.0,15.1,50,30.04,10.0,WNW,10.4,-,N/A,,Clear,300,2013-01-02 19:56:00
3:56 PM,30.9,15.1,52,30.04,10.0,WNW,11.5,-,N/A,,Clear,300,2013-01-02 20:56:00
4:56 PM,30.9,14.0,50,30.07,10.0,NW,10.4,-,N/A,,Clear,310,2013-01-02 21:56:00
5:56 PM,30.0,15.1,54,30.10,10.0,NW,8.1,-,N/A,,Clear,310,2013-01-02 22:56:00
6:56 PM,30.0,15.1,54,30.12,10.0,West,5.8,-,N/A,,Scattered Clouds,280,2013-01-02 23:56:00
7:56 PM,30.0,16.0,56,30.12,10.0,West,3.5,-,N/A,,Mostly Cloudy,260,2013-01-03 00:56:00
8:56 PM,28.9,16.0,58,30.13,10.0,West,4.6,-,N/A,,Mostly Cloudy,260,2013-01-03 01:56:00
9:56 PM,28.0,16.0,61,30.15,10.0,West,3.5,-,N/A,,Clear,270,2013-01-03 02:56:00
10:56 PM,28.9,17.1,61,30.15,10.0,West,5.8,-,N/A,,Mostly Cloudy,260,2013-01-03 03:56:00
11:56 PM,28.0,17.1,63,30.16,10.0,West,5.8,-,N/A,,Clear,270,2013-01-03 04:56:00